Hourly Data Report for July 31, 2021

TORONTO INTL A
ONTARIO
Current Station Operator: NAVCAN

43°40'36.000" N
79°37'50.000" W
173.40 m
6158731
71624
YYZ

Download Data

Hourly Data (July 2021)
Hourly Data Report for July 31, 2021
TIME
LST
Temp Definition
°C
Dew Point Definition
°C
Rel Hum Definition
%
Precip. Amount Definition
mm

Wind Dir Definition
10's deg

Wind Spd Definition
km/h
Visibility Definition
km
Stn Press Definition
kPa
Hmdx Definition


Wind Chill Definition


Weather Definition


00:00 13.7 8.9 72   34 10 24.1 99.70     LegendNANA
01:00 13.5 8.9 74   34 12 24.1 99.68     Clear
02:00 12.7 9.0 78   32 14 24.1 99.67     LegendNANA
03:00 11.2 8.8 85   36 2 24.1 99.63     LegendNANA
04:00 12.4 8.6 78   31 7 24.1 99.62     Mainly Clear
05:00 11.6 8.8 82   31 4 24.1 99.66     LegendNANA
06:00 12.9 9.1 77   32 7 24.1 99.65     LegendNANA
07:00 13.8 9.8 76   27 5 24.1 99.65     Mostly Cloudy
08:00 15.9 10.4 70   28 4 24.1 99.63     LegendNANA
09:00 18.4 9.6 56   25 7 24.1 99.60     LegendNANA
10:00 19.0 9.3 53   17 10 24.1 99.56     Mainly Clear
11:00 19.7 9.6 52   16 9 24.1 99.51     LegendNANA
12:00 20.1 9.4 50   11 18 24.1 99.45     LegendNANA
13:00 20.2 8.6 47   16 16 24.1 99.44     Mostly Cloudy
14:00 19.9 10.9 56   14 15 24.1 99.40     LegendNANA
15:00 18.9 12.9 68   14 15 24.1 99.29     Rain Showers
16:00 21.2 12.2 56   16 12 24.1 99.24     Mostly Cloudy
17:00 20.9 11.7 55   20 11 24.1 99.26     LegendNANA
18:00 20.0 12.9 63   15 14 24.1 99.19     LegendNANA
19:00 19.3 14.9 76   16 10 16.1 99.18     Rain
20:00 19.1 16.0 82   18 8 24.1 99.14     LegendNANA
21:00 19.3 15.8 80   18 8 24.1 99.11     LegendNANA
22:00 19.1 15.2 78   18 8 24.1 99.06     Mostly Cloudy
23:00 18.9 15.6 81   18 10 24.1 99.00     LegendNANA

Notes on Data Quality.

Legend

  • E = Estimated
  • M = Missing
  • NA = Not Available*
  • [empty] = Indicates an unobserved value
Date modified: